Weather History for KILG - October, 2012

Change the Weather History Date:

Monday, October 8, 2012

  Actual Average Record
Temperature  
Mean Temperature 47 °F 59 °F  
Max Temperature 54 °F 69 °F 88 °F (1941)
Min Temperature 39 °F 49 °F 33 °F (2001)
Degree Days  
Heating Degree Days 18 7  
Month to date heating degree days 40 47  
Since 1 July heating degree days 81 99  
Cooling Degree Days 0 1  
Month to date cooling degree days 24 9  
Year to date cooling degree days 1385 1136  
Moisture  
Dew Point 42 °F    
Average Humidity 83    
Maximum Humidity 100    
Minimum Humidity 66    
Precipitation  
Precipitation T in 0.12 in 2.52 in (2005)
Month to date precipitation 0.35 0.99  
Year to date precipitation 25.51 34.07  
Snow  
Snow 0.00 in 0.00 in 0.00 in (1894)
Month to date snowfall 0.0 0.0  
Since 1 July snowfall 0.0 0.0  
Since 1 September snowfall 0.0 0.0  
Snow Depth 0.00 in    
Sea Level Pressure  
Sea Level Pressure 30.24 in    
Wind  
Wind Speed 6 mph (NNW)    
Max Wind Speed 10 mph    
Max Gust Speed 13 mph    
Visibility 10 miles    
Events Rain    
T = Trace of Precipitation, MM = Missing Value Source: NWS Daily Summary

Daily Weather History Graph

Daily Weather History Graph

Search for Another Location

Airport or City:

Trip Planner

Search our weather history database for the weather conditions in past years. The results will help you decide how hot, cold, wet, or windy it might be!

Date:

Astronomy

Oct. 08, 2012 Rise Set
Actual Time 7:05 AM EDT 6:33 PM EDT
Civil Twilight 6:38 AM EDT 6:59 PM EDT
Nautical Twilight 6:07 AM EDT 7:31 PM EDT
Astronomical Twilight 5:36 AM EDT 8:02 PM EDT
Moon No Moon Rise 2:19 PM EDT (10/8)
Length of Visible Light 12h 21m
Length of Day
11h 27m
Waning Gibbous, 46% of the Moon is Illuminated
Oct 8
Waning Gibbous
Oct 15
New
Oct 21
First Quarter
Oct 29
Full
Nov 6
Last Quarter

Hourly Weather History & Observations

Time (EDT) Temp. Windchill Dew Point Humidity Pressure Visibility Wind Dir Wind Speed Gust Speed Precip Events Conditions
12:51 AM 46.0 °F 43.1 °F 44.1 °F 93% 30.16 in 7.0 mi West 5.8 mph - N/A   Clear
1:51 AM 45.0 °F 40.6 °F 42.1 °F 90% 30.18 in 10.0 mi NW 8.1 mph - N/A   Clear
2:51 AM 43.0 °F 39.5 °F 41.0 °F 93% 30.18 in 10.0 mi WNW 5.8 mph - N/A   Clear
3:51 AM 39.2 °F 34.2 °F 39.2 °F 100% 30.17 in 8.0 mi NW 6.9 mph - N/A   Clear
4:51 AM 39.9 °F 35.1 °F 39.0 °F 97% 30.19 in 7.0 mi NW 6.9 mph - N/A   Clear
5:51 AM 41.0 °F - 39.0 °F 93% 30.21 in 6.0 mi Calm Calm - N/A   Clear
6:51 AM 39.0 °F 35.7 °F 37.0 °F 93% 30.24 in 10.0 mi NW 4.6 mph - N/A   Clear
7:51 AM 42.1 °F 38.4 °F 39.0 °F 89% 30.28 in 10.0 mi NNW 5.8 mph - N/A   Clear
8:51 AM 44.6 °F 41.4 °F 39.2 °F 81% 30.28 in 10.0 mi North 5.8 mph - N/A   Clear
9:51 AM 46.9 °F - 41.0 °F 80% 30.29 in 10.0 mi North 5.8 mph - N/A   Clear
10:51 AM 50.0 °F - 41.0 °F 71% 30.29 in 10.0 mi Calm Calm - N/A   Clear
11:51 AM 51.1 °F - 41.0 °F 68% 30.29 in 10.0 mi ENE 5.8 mph - N/A   Overcast
12:51 PM 51.8 °F - 41.0 °F 67% 30.30 in 10.0 mi Calm Calm - N/A   Overcast
1:51 PM 52.0 °F - 42.1 °F 69% 30.27 in 10.0 mi NNE 3.5 mph - N/A   Overcast
2:51 PM 53.1 °F - 42.1 °F 66% 30.26 in 10.0 mi NNW 3.5 mph - N/A   Overcast
3:51 PM 53.1 °F - 42.1 °F 66% 30.28 in 10.0 mi WNW 3.5 mph - N/A   Overcast
4:51 PM 53.1 °F - 43.0 °F 69% 30.28 in 10.0 mi NNW 6.9 mph - N/A   Overcast
5:51 PM 52.0 °F - 43.0 °F 71% 30.26 in 10.0 mi North 6.9 mph - 0.00 in   Overcast
6:51 PM 51.1 °F - 43.0 °F 74% 30.24 in 10.0 mi North 9.2 mph - N/A   Overcast
7:51 PM 51.8 °F - 42.8 °F 71% 30.24 in 10.0 mi North 6.9 mph - N/A   Overcast
8:51 PM 50.0 °F - 44.6 °F 82% 30.25 in 10.0 mi North 6.9 mph - N/A Rain Light Rain
9:51 PM 50.0 °F - 45.0 °F 83% 30.24 in 10.0 mi NNE 8.1 mph - 0.00 in Rain Light Rain
10:51 PM 50.0 °F - 45.0 °F 83% 30.22 in 10.0 mi NNE 8.1 mph - 0.00 in   Overcast
11:51 PM 50.0 °F - 45.0 °F 83% 30.22 in 10.0 mi North 8.1 mph - 0.00 in Rain Light Rain